Plymouth, MA

9:38 AM EST on January 22, 2018 (GMT -0500)
Plymouth Municipal

Weather History for KPYM - March, 2014

Change the Weather History Date:

Saturday, March 15, 2014

  Actual Average Record
Temperature  
Mean Temperature 46 °F -  
Max Temperature 55 °F 45 °F 60 °F (1983)
Min Temperature 37 °F 27 °F 11 °F (1968)
Degree Days  
Heating Degree Days 19    
Moisture  
Dew Point 32 °F    
Average Humidity 61    
Maximum Humidity 82    
Minimum Humidity 45    
Precipitation  
Precipitation 0.00 in - - ()
Sea Level Pressure  
Sea Level Pressure 29.80 in    
Wind  
Wind Speed 12 mph (SW)    
Max Wind Speed 26 mph    
Max Gust Speed 40 mph    
Visibility 10 miles    
Events Rain    
Averages and records for this station are not official NWS values.
T = Trace of Precipitation, MM = Missing Value Source: NWS Daily Summary

Daily Weather History Graph

Daily Weather History Graph

Search for Another Location

Airport or City:

Trip Planner

Search our weather history database for the weather conditions in past years. The results will help you decide how hot, cold, wet, or windy it might be!

Date:

Astronomy

Mar. 15, 2014 Rise Set
Actual Time 6:54 AM EDT 6:49 PM EDT
Civil Twilight 6:27 AM EDT 7:17 PM EDT
Nautical Twilight 5:54 AM EDT 7:49 PM EDT
Astronomical Twilight 5:21 AM EDT 8:22 PM EDT
Moon 6:05 PM EDT (3/15) 6:05 AM EDT (3/15)
Length of Visible Light 12h 50m
Length of Day
11h 54m
Waxing Gibbous, 99% of the Moon is Illuminated
Mar 15
Waxing Gibbous
Mar 16
Full
Mar 23
Last Quarter
Mar 30
New
Apr 7
First Quarter

Hourly Weather History & Observations

Time (EDT) Temp. Windchill Dew Point Humidity Pressure Visibility Wind Dir Wind Speed Gust Speed Precip Events Conditions
12:52 AM 37.9 °F 30.9 °F 30.0 °F 73% 29.95 in 10.0 mi SSW 10.4 mph - N/A   Clear
1:52 AM 37.9 °F 31.5 °F 32.0 °F 79% 29.92 in 10.0 mi SSW 9.2 mph - N/A   Clear
2:52 AM 39.0 °F 33.4 °F 33.1 °F 79% 29.88 in 10.0 mi SSW 8.1 mph 17.3 mph N/A   Clear
3:52 AM 39.0 °F 32.8 °F 34.0 °F 82% 29.84 in 10.0 mi SSW 9.2 mph - N/A   Clear
4:52 AM 41.0 °F 33.9 °F 34.0 °F 76% 29.82 in 10.0 mi SSW 12.7 mph - N/A   Clear
5:52 AM 42.1 °F 35.2 °F 34.0 °F 73% 29.80 in 10.0 mi SSW 12.7 mph 23.0 mph N/A   Clear
6:52 AM 42.1 °F 35.2 °F 33.1 °F 70% 29.80 in 10.0 mi SW 12.7 mph - N/A   Clear
7:52 AM 43.0 °F 37.7 °F 32.0 °F 65% 29.79 in 10.0 mi SW 9.2 mph - N/A   Mostly Cloudy
8:52 AM 42.1 °F 36.6 °F 34.0 °F 73% 29.78 in 4.0 mi SSW 9.2 mph - 0.00 in Rain Light Rain
9:52 AM 44.1 °F 39.0 °F 37.0 °F 76% 29.76 in 10.0 mi SSW 9.2 mph - 0.00 in   Scattered Clouds
10:52 AM 48.9 °F - 36.0 °F 61% 29.73 in 10.0 mi SW 16.1 mph 29.9 mph N/A   Mostly Cloudy
11:52 AM 52.0 °F - 35.1 °F 53% 29.73 in 10.0 mi SW 19.6 mph 25.3 mph N/A   Mostly Cloudy
12:52 PM 50.0 °F - 34.0 °F 54% 29.72 in 10.0 mi SSW 10.4 mph - N/A   Overcast
1:52 PM 51.1 °F - 34.0 °F 52% 29.70 in 10.0 mi SSW 12.7 mph - N/A   Mostly Cloudy
2:52 PM 55.0 °F - 35.1 °F 47% 29.69 in 10.0 mi SW 11.5 mph 21.9 mph N/A   Clear
3:52 PM 54.0 °F - 33.1 °F 45% 29.68 in 10.0 mi SW 13.8 mph - N/A   Overcast
4:52 PM 50.0 °F - 30.0 °F 46% 29.72 in 10.0 mi WNW 26.5 mph 40.3 mph N/A   Overcast
5:00 PM 50.0 °F - 30.9 °F 48% 29.73 in 10.0 mi WNW 24.2 mph 35.7 mph N/A   Mostly Cloudy
5:52 PM 48.9 °F - 30.0 °F 48% 29.77 in 10.0 mi West 17.3 mph 26.5 mph N/A   Partly Cloudy
6:52 PM 46.0 °F 39.6 °F 28.0 °F 50% 29.81 in 10.0 mi West 15.0 mph 21.9 mph N/A   Clear
7:52 PM 45.0 °F 39.7 °F 28.0 °F 52% 29.84 in 10.0 mi West 10.4 mph - N/A   Clear
8:52 PM 43.0 °F 38.2 °F 27.0 °F 53% 29.85 in 10.0 mi WNW 8.1 mph - N/A   Clear
9:52 PM 41.0 °F 36.4 °F 27.0 °F 57% 29.87 in 10.0 mi SW 6.9 mph - N/A   Clear
10:52 PM 39.9 °F 34.5 °F 26.1 °F 58% 29.89 in 10.0 mi West 8.1 mph - N/A   Clear
11:52 PM 39.9 °F 32.9 °F 26.1 °F 58% 29.89 in 10.0 mi West 11.5 mph - N/A   Clear